Weather History for Columbus, OH

Change the Weather History Date:

Monday, October 1, 2012

  Actual Average Record
Temperature  
Mean Temperature 57 °F 60 °F  
Max Temperature 65 °F 71 °F 89 °F (1952)
Min Temperature 49 °F 50 °F 30 °F (1899)
Degree Days  
Heating Degree Days 8 6  
Month to date heating degree days 8 6  
Since 1 July heating degree days 94 75  
Cooling Degree Days 0 2  
Month to date cooling degree days 0 2  
Year to date cooling degree days 1421 1013  
Growing Degree Days 6 (Base 50)    
Moisture  
Dew Point 47 °F    
Average Humidity 73    
Maximum Humidity 93    
Minimum Humidity 52    
Precipitation  
Precipitation 0.18 in 0.08 in 2.23 in (1881)
Month to date precipitation 0.18 0.08  
Year to date precipitation 27.03 30.61  
Snow  
Snow 0.00 in 0.00 in - ()
Month to date snowfall 0.0 0.0  
Since 1 July snowfall 0.0 0.0  
Since 1 September snowfall 0.0 0.0  
Snow Depth 0.00 in    
Sea Level Pressure  
Sea Level Pressure 29.85 in    
Wind  
Wind Speed 7 mph (ENE)    
Max Wind Speed 14 mph    
Max Gust Speed 18 mph    
Visibility 10 miles    
Events Rain    
T = Trace of Precipitation, MM = Missing Value Source: NWS Daily Summary

Daily Weather History Graph

Daily Weather History Graph

Search for Another Location

Airport:

Trip Planner

Search our weather history database for the weather conditions in past years. The results will help you decide how hot, cold, wet, or windy it might be!

Date:

Astronomy

Oct. 01, 2012 Rise Set
Actual Time 7:28 AM EDT 7:13 PM EDT
Civil Twilight 7:01 AM EDT 7:40 PM EDT
Nautical Twilight 6:29 AM EDT 8:11 PM EDT
Astronomical Twilight 5:58 AM EDT 8:42 PM EDT
Moon 7:49 PM EDT (10/1) 8:56 AM EDT (10/1)
Length of Visible Light 12h 38m
Length of Day
11h 44m
Full, 98% of the Moon is Illuminated
Oct 1
Full
Oct 8
Last Quarter
Oct 15
New
Oct 21
First Quarter
Oct 29
Full

Hourly Weather History & Observations

Time (EDT) Temp. Dew Point Humidity Pressure Visibility Wind Dir Wind Speed Gust Speed Precip Events Conditions
12:51 AM 54.0 °F 45.0 °F 72% 29.92 in 10.0 mi Calm Calm - N/A   Overcast
1:51 AM 54.0 °F 45.0 °F 72% 29.91 in 10.0 mi Calm Calm - N/A   Overcast
2:51 AM 51.1 °F 45.0 °F 80% 29.91 in 10.0 mi NNE 4.6 mph - N/A   Overcast
3:51 AM 50.0 °F 45.0 °F 83% 29.90 in 10.0 mi NNE 3.5 mph - N/A   Mostly Cloudy
4:51 AM 50.0 °F 45.0 °F 83% 29.90 in 10.0 mi NE 3.5 mph - N/A   Mostly Cloudy
5:51 AM 51.1 °F 45.0 °F 80% 29.89 in 10.0 mi ESE 5.8 mph - N/A   Mostly Cloudy
6:51 AM 50.0 °F 45.0 °F 83% 29.89 in 10.0 mi East 5.8 mph - N/A   Mostly Cloudy
7:51 AM 51.1 °F 45.0 °F 80% 29.90 in 10.0 mi ENE 6.9 mph - N/A   Mostly Cloudy
8:51 AM 52.0 °F 45.0 °F 77% 29.92 in 10.0 mi ENE 3.5 mph - N/A   Mostly Cloudy
9:51 AM 57.0 °F 46.9 °F 69% 29.91 in 10.0 mi ENE 8.1 mph - N/A   Mostly Cloudy
10:51 AM 59.0 °F 46.9 °F 64% 29.91 in 10.0 mi East 8.1 mph - N/A   Mostly Cloudy
11:51 AM 61.0 °F 46.9 °F 60% 29.90 in 10.0 mi East 10.4 mph - N/A   Overcast
12:51 PM 62.1 °F 46.0 °F 56% 29.88 in 10.0 mi East 6.9 mph - N/A   Overcast
1:51 PM 62.1 °F 46.9 °F 58% 29.86 in 10.0 mi East 9.2 mph - N/A   Overcast
2:51 PM 62.1 °F 46.9 °F 58% 29.84 in 10.0 mi East 12.7 mph - N/A   Mostly Cloudy
3:51 PM 64.0 °F 46.9 °F 54% 29.82 in 10.0 mi East 10.4 mph - N/A   Overcast
4:51 PM 64.9 °F 46.9 °F 52% 29.81 in 10.0 mi East 9.2 mph - N/A   Overcast
5:51 PM 64.4 °F 46.4 °F 52% 29.81 in 10.0 mi East 10.4 mph - N/A   Overcast
6:51 PM 62.1 °F 46.0 °F 56% 29.80 in 10.0 mi East 9.2 mph - N/A   Overcast
7:51 PM 61.0 °F 48.0 °F 62% 29.80 in 10.0 mi ENE 9.2 mph - 0.00 in Rain Light Rain
8:51 PM 57.0 °F 51.1 °F 81% 29.78 in 10.0 mi NE 6.9 mph - 0.04 in Rain Light Rain
9:18 PM 57.2 °F 51.8 °F 82% 29.78 in 8.0 mi NE 6.9 mph - 0.00 in Rain Light Rain
9:51 PM 55.0 °F 52.0 °F 89% 29.78 in 4.0 mi NE 8.1 mph - 0.06 in Rain Rain
10:51 PM 55.0 °F 52.0 °F 89% 29.76 in 10.0 mi ENE 9.2 mph - 0.03 in Rain Light Rain
11:19 PM 55.4 °F 51.8 °F 88% 29.77 in 4.0 mi ENE 5.8 mph - 0.04 in Rain Rain
11:47 PM 55.4 °F 53.6 °F 94% 29.75 in 10.0 mi ENE 8.1 mph - 0.05 in Rain Light Rain
11:51 PM 55.0 °F 53.1 °F 93% 29.74 in 10.0 mi ENE 8.1 mph - 0.05 in Rain Light Rain